Find Starlink 35173

NORAD ID: 65744 Int'l Des: 2025-216 Owner: SPXS Country: US Constellation: starlink operational
LEOCIRCULAR

当前视图

正在加载3D地球...

About Starlink 35173

Starlink 35173 (NORAD 65744) is a starlink constellation satellite (v2 mini) launched Sep 25, 2025 by SPXS of US. It operates in LEO, CIRCULAR orbit with a mass of 575.00 kg.

即将过境

Passes for default location (London). Set your location on the main map for personalized predictions.

高度历史

Loading altitude history...

两行轨道根数

1 65744U 25216L 26265.05047709 .00012115 00000-0 36893-3 0 9997
2 65744 53.1583 138.2402 0001138 79.2439 280.8692 15.34416599 56698
Epoch: Sep 22, 2026 • Age: 19 hours

当前状态

高度 473.4 km
远地点 / 近地点 N/A
速度 7.63 km/s
星下点 -33.02°S, 167.2°E
发射日期 Sep 25, 2025
运行时间 0.9 years
类型 internet

技术详情

分类 Payload
质量 575.00 kg
干质量 530.00 kg
长度 0.30 m
跨度 29.00 m
形状 ? Box + pan
制造商 SPXS
平台类型 Starlink V2MO
阶段状态 In Orbit
所有者/国家 SPXS/US

Most Searched